Home   Weather   Burlington   Past weeks
Flag for USA

Past Weather in Burlington, Vermont, USA — Yesterday and Last 2 Weeks

Now
45 °F

Sunny.


Feels Like: 45 °F
Forecast: 53 / 36 °F
Wind: No wind

Location: Burlington International Airport

Current Time: Apr 7, 2020 at 10:39:57 am

Latest Report: Apr 7, 2020 at 8:54 am


Visibility: 10 mi

Pressure: 29.91 "Hg

Humidity: 44%

Dew Point: 24 °F

Location of BurlingtonLocation

Past Weather in Burlington — Graph

°F

Burlington Temperature Yesterday

Maximum temperature yesterday: 57 °F (at 3:54 pm)
Minimum temperature yesterday: 34 °F (at 5:54 am)
Average temperature yesterday: 47 °F

High & Low Weather Summary for the Past Weeks

 TemperatureHumidityPressure
High57 °F (Apr 6, 3:54 pm)93% (Mar 31, 12:54 am)30.50 "Hg (Mar 31, 12:54 am)
Low24 °F (Mar 25, 4:54 am)16% (Apr 6, 2:54 pm)29.68 "Hg (Mar 26, 11:02 pm)
Average41 °F69%29.99 "Hg
* Reported Mar 23 8:54 am — Apr 7 8:54 am, Burlington. Weather by CustomWeather, © 2020

Note: Actual official high and low records may vary slightly from our data, if they occured in-between our weather recording intervals... More about our weather records

Burlington Weather History for the Previous 24 Hours

Scroll right to see more
 ConditionsComfort  
Time TempWeatherWind HumidityBarometerVisibility
8:54 am
Tue, Apr 7
45 °FSunny.No wind44%29.91 "Hg10 mi
7:54 am38 °FSunny.3 mph65%29.91 "Hg10 mi
6:54 am34 °FPassing clouds.No wind73%29.91 "Hg10 mi
5:54 am34 °FPassing clouds.No wind73%29.90 "Hg10 mi
4:54 am36 °FPassing clouds.No wind70%29.89 "Hg10 mi
3:54 am39 °FPassing clouds.No wind62%29.89 "Hg10 mi
2:54 am42 °FOvercast.No wind51%29.88 "Hg10 mi
1:54 am45 °FOvercast.3 mph42%29.90 "Hg10 mi
12:54 am47 °FOvercast.3 mph37%29.90 "Hg10 mi
11:54 pm
Mon, Apr 6
47 °FPassing clouds.6 mph37%29.90 "Hg10 mi
10:54 pm47 °FClear.7 mph37%29.91 "Hg10 mi
9:54 pm49 °FClear.8 mph35%29.91 "Hg10 mi
8:54 pm51 °FOvercast.7 mph29%29.92 "Hg10 mi
7:54 pm52 °FPassing clouds.6 mph27%29.89 "Hg10 mi
6:54 pm54 °FPartly sunny.13 mph25%29.90 "Hg10 mi
5:54 pm56 °FScattered clouds.13 mph21%29.90 "Hg10 mi
4:54 pm56 °FPassing clouds.12 mph19%29.91 "Hg10 mi
3:54 pm57 °FPassing clouds.7 mph17%29.92 "Hg10 mi
2:54 pm56 °FPassing clouds.9 mph16%29.94 "Hg10 mi
1:54 pm54 °FPassing clouds.8 mph19%29.98 "Hg10 mi
12:54 pm52 °FPassing clouds.7 mph21%30.01 "Hg10 mi
11:54 am50 °FPassing clouds.5 mph24%30.04 "Hg10 mi
10:54 am47 °FPassing clouds.6 mph36%30.07 "Hg10 mi
Weather by CustomWeather, © 2020

See weather overview

Advertising